Station PBFW1 - Padilla Bay Farm, Padilla Bay Reserve, WA Image indicating link to RSS feed of recent meteorological observations for station PBFW1


Conditions at PBFW1 as of
(3:30 pm PDT)
2230 GMT on 07/18/2024:
     

Click on the graph icon in the table below to see a time series plot of the last five days of that observation.

5-day plot - Wind Direction Wind Direction (WDIR): W ( 270 deg true )
5-day plot - Wind Speed Wind Speed (WSPD): 7.0 kts
5-day plot - Atmospheric Pressure Atmospheric Pressure (PRES):30.06 in
5-day plot - Air Temperature Air Temperature (ATMP): 71.4 °F
5-day plot - Dew Point Dew Point (DEWP): 59.4 °F
5-day plot -  Wind Speed, Wind Gust and Atmospheric Pressure Combined plot of Wind Speed, Gust, and Air Pressure
Previous observations
TIME
(PDT)
5-day plot - Wind Direction
WDIR
 
5-day plot - Wind Speed
WSPD
kts
5-day plot - Wind Gust
GST
kts
5-day plot - Wave Height
WVHT
ft
5-day plot - Dominant Wave Period
DPD
sec
5-day plot - Average Wave Period
APD
sec
5-day plot - Mean Wave Direction
MWD
 
5-day plot - Atmospheric Pressure
PRES
in
5-day plot - Pressure Tendency
PTDY
in
5-day plot - Air Temperature
ATMP
°F
5-day plot - Water Temperature
WTMP
°F
5-day plot - Dew Point
DEWP
°F
5-day plot - Salinity
SAL
psu
5-day plot - Visibility
VIS
nmi
5-day plot - Tide (above MLLW)
TIDE
ft
2024-07-18 03:15 pm W 6.0-----30.06- 71.8- 59.7---
2024-07-18 03:00 pm W 7.0-----30.06+0.00 72.0- 59.4---
2024-07-18 02:45 pmWSW 6.0-----30.06- 72.3- 59.7---
2024-07-18 02:30 pmWSW 6.0-----30.06- 73.0- 60.4---
2024-07-18 02:15 pm W 6.0-----30.06- 73.2- 60.1---
2024-07-18 02:00 pm W 5.1-----30.06+0.00 72.9- 59.7---
2024-07-18 01:45 pmWSW 6.0-----30.06- 72.9- 60.3---
2024-07-18 01:30 pmNNW 6.0-----30.06- 71.6- 60.3---
2024-07-18 01:15 pm N 8.0-----30.06- 71.2- 60.8---
2024-07-18 01:00 pmNNW 8.0-----30.06-0.03 70.5- 60.1---
2024-07-18 12:45 pm N 8.0-----30.06- 70.5- 60.4---
2024-07-18 12:30 pmNNW 6.0-----30.06- 71.8- 60.4---
2024-07-18 12:15 pmSSW 4.1-----30.06- 72.0- 58.1---
2024-07-18 12:00 pmSSW 5.1-----30.06-0.03 70.9- 58.8---
2024-07-18 11:45 am S 6.0-----30.06- 70.5- 58.8---
2024-07-18 11:30 am S 5.1-----30.06- 69.8- 59.0---
2024-07-18 11:15 amSSW 6.0-----30.06- 69.8- 59.7---
2024-07-18 11:00 am SW 5.1-----30.06-0.03 69.3- 60.1---
2024-07-18 10:45 am SW 4.1-----30.06- 68.9- 59.4---
2024-07-18 10:30 am SW 4.1-----30.06- 68.0- 59.2---
2024-07-18 10:15 am SW 1.9-----30.06- 67.6- 59.2---
2024-07-18 10:00 am S 1.9-----30.09+0.00 66.9- 59.2---
2024-07-18 09:45 am SW 2.9-----30.09- 65.7- 59.2---
2024-07-18 09:30 am SW 1.9-----30.09- 65.1- 59.0---
2024-07-18 09:15 am SW 1.0-----30.09- 64.0- 58.5---
2024-07-18 09:00 amSSW 1.0-----30.09+0.03 63.5- 58.3---
2024-07-18 08:45 am E 1.0-----30.09- 63.0- 58.1---
2024-07-18 08:30 am- 0.0-----30.09- 63.1- 58.3---
2024-07-18 08:15 am- 0.0-----30.09- 61.7- 57.9---
2024-07-18 08:00 am- 0.0-----30.09+0.03 60.8- 58.5---
2024-07-18 07:45 amSSE 1.9-----30.09- 59.5- 58.1---
2024-07-18 07:30 am SE 1.9-----30.09- 58.5- 57.6---
2024-07-18 07:15 amESE 1.0-----30.09- 57.0- 56.5---
2024-07-18 07:00 am SE 1.0-----30.09+0.06 55.2- 54.7---
2024-07-18 06:45 am- 0.0-----30.06- 54.5- 54.0---
2024-07-18 06:30 am- 0.0-----30.06- 54.3- 53.8---
2024-07-18 06:15 amESE 1.9-----30.06- 53.4- 52.9---
2024-07-18 06:00 am- 0.0-----30.06+0.03 53.6- 53.1---
2024-07-18 05:45 am- 0.0-----30.06- 52.7- 51.8---
2024-07-18 05:30 am SE 1.0-----30.06- 53.6- 53.1---
2024-07-18 05:15 am- 0.0-----30.06- 53.2- 52.3---
2024-07-18 05:00 am- 0.0-----30.06+0.03 53.2- 52.3---
2024-07-18 04:45 amESE 2.9-----30.06- 54.0- 53.1---
2024-07-18 04:30 amESE 2.9-----30.06- 54.5- 53.4---
2024-07-18 04:15 am- 0.0-----30.03- 55.9- 55.0---
2024-07-18 04:00 am- 0.0-----30.03+0.00 55.9- 55.0---
2024-07-18 03:45 am- 0.0-----30.03- 55.9- 55.0---
2024-07-18 03:30 amESE 1.9-----30.03- 55.2- 54.3---
2024-07-18 03:15 am SE 1.9-----30.03- 54.7- 53.6---
2024-07-18 03:00 am SE 1.0-----30.03+0.03 55.0- 54.0---
2024-07-18 02:45 am S 1.0-----30.03- 56.1- 55.0---
2024-07-18 02:30 am S 2.9-----30.03- 55.8- 54.3---
2024-07-18 02:15 am S 2.9-----30.03- 56.5- 55.0---
2024-07-18 02:00 am S 2.9-----30.03+0.03 56.5- 55.0---
2024-07-18 01:45 am S 1.9-----30.03- 56.7- 55.2---
2024-07-18 01:30 am S 2.9-----30.03- 56.3- 54.9---
2024-07-18 01:15 am S 2.9-----30.03- 56.5- 54.9---
2024-07-18 01:00 amSSE 2.9-----30.03+0.03 56.5- 54.5---
2024-07-18 12:45 amSSE 1.9-----30.03- 57.0- 55.0---
2024-07-18 12:30 amSSE 1.9-----30.03- 57.9- 55.4---
2024-07-18 12:15 amSSW 1.9-----30.03- 59.0- 56.1---
2024-07-18 12:00 amWSW 1.9-----30.00+0.03 59.0- 56.1---
2024-07-17 11:45 pm S 2.9-----30.00- 58.8- 55.6---
2024-07-17 11:30 pmSSE 1.0-----30.00- 59.7- 55.9---
2024-07-17 11:15 pmSSW 2.9-----30.00- 60.3- 56.1---
2024-07-17 11:00 pm S 2.9-----30.00+0.03 61.0- 55.9---
2024-07-17 10:45 pmSSE 4.1-----30.00- 61.9- 56.1---
2024-07-17 10:30 pm SW 6.0-----30.00- 62.1- 55.9---
2024-07-17 10:15 pm SW 5.1-----30.00- 62.1- 56.3---
2024-07-17 10:00 pmWSW 6.0-----30.00+0.03 62.1- 56.7---
2024-07-17 09:45 pm SW 2.9-----30.00- 61.9- 56.8---
2024-07-17 09:30 pm S 1.9-----29.97- 61.5- 56.7---
2024-07-17 09:15 pm S 4.1-----29.97- 62.8- 57.0---
2024-07-17 09:00 pm SW 5.1-----29.97+0.03 64.4- 57.2---
2024-07-17 08:45 pm SW 5.1-----29.97- 66.2- 59.0---
2024-07-17 08:30 pm S 4.1-----29.97- 66.9- 59.5---
2024-07-17 08:15 pm S 1.9-----29.97- 68.5- 60.1---
2024-07-17 08:00 pmSSW 1.9-----29.97+0.03 69.3- 59.7---
2024-07-17 07:45 pmSSW 2.9-----29.97- 70.0- 59.5---
2024-07-17 07:30 pmSSW 4.1-----29.97- 71.2- 59.5---
2024-07-17 07:15 pmSSW 4.1-----29.97- 72.5- 59.9---
2024-07-17 07:00 pm SW 5.1-----29.97+0.03 72.5- 59.9---
2024-07-17 06:45 pmSSW 5.1-----29.97- 73.0- 59.5---
2024-07-17 06:30 pmSSW 6.0-----29.97- 73.4- 59.9---
2024-07-17 06:15 pmSSW 7.0-----29.97- 73.2- 59.2---
2024-07-17 06:00 pm S 6.0-----29.94+0.00 73.8- 60.3---
2024-07-17 05:45 pm S 5.1-----29.97- 72.7- 60.1---
2024-07-17 05:30 pmSSW 5.1-----29.97- 73.4- 59.4---
2024-07-17 05:15 pmWSW 5.1-----29.94- 72.9- 59.4---
2024-07-17 05:00 pm SW 6.0-----29.94+0.00 71.6- 59.9---
2024-07-17 04:45 pmSSW 8.0-----29.94- 73.0- 60.4---
2024-07-17 04:30 pmSSW 6.0-----29.94- 77.0- 61.9---
2024-07-17 04:15 pm SW 5.1-----29.94- 77.4- 61.3---
2024-07-17 04:00 pm W 7.0-----29.94-0.03 76.1- 60.6---